User: anonymous   Login
Location: Unspecified
(0.0000°N, 0.0000°E)
Time: 06:50:30
(UTC+00:00)
Language:

STARLINK-1460 - Orbit

View from above orbital plane
View from above orbital plane
View from above satellite
View from above satellite

Ground track
Ground track

The orbit is defined by the following mean orbital elements,

1 45676U          26145.48500816 +.00000000 +00000-0 +15155-2 0 00000
2 45676  53.1565  67.6395 0004105 100.2375 259.9090 15.33713065    07
Epoch (UTC): 25 May 2026 11:38:24
Eccentricity: 0.0004105
inclination: 53.1565°
perigee height: 462 km
apogee height: 468 km
right ascension of ascending node: 67.6395°
argument of perigee: 100.2375°
revolutions per day: 15.33713065
mean anomaly at epoch: 259.9090°

The dashed part of the orbit path shows where the satellite is in the earth's shadow,  

DLR